Regional Weather Roundup
Issued by NWS Sioux Falls, SD

Home | Current Version | Previous Version | Text Only | Print | Product List | Glossary Off
Versions: 1 2 3 4 5 6 7 8 9 10 11 12 13 14 15 16 17 18 19 20 21 22 23 24 25 26 27 28 29 30 31 32 33 34 35 36 37 38 39 40 41 42 43 44 45 46 47 48 49 50

000
ASUS43 KFSD 090410
RWRFSD

WEATHER ROUNDUP FOR SE SOUTH DAKOTA/SW MINNESOTA/NW IOWA
NATIONAL WEATHER SERVICE SIOUX FALLS SD
1000 PM CST MON FEB 08 2016

NOTE: "FAIR" INDICATES FEW OR NO CLOUDS BELOW 12,000 FEET WITH NO
SIGNIFICANT WEATHER AND OR OBSTRUCTIONS TO VISIBILITY.


SDZ038>040-050-052>070-090500-
SOUTHEAST SOUTH DAKOTA

CITY           SKY/WX    TMP DP  RH WIND       PRES   REMARKS
BROOKINGS      FLURRIES  13   8  81 N23G33    30.10R WCI  -6
CHAMBERLAIN    CLOUDY    31  19  62 N15G23    30.19S WCI  20
HURON          CLEAR     21  12  68 N21       30.19R WCI   5
MADISON        FAIR      16  14  93 N20G25    30.11R WCI  -1
MITCHELL       CLEAR     23  14  68 N16       30.19R WCI  10
SIOUX FALLS    CLEAR     19  10  68 N23G32    30.11R WCI   2
WINNER         CLOUDY    30  20  66 NW8       30.20S WCI  22
YANKTON        CLEAR     25  12  58 N20G29    30.15R WCI  11
$$

MNZ071-072-080-081-089-090-097-098-090500-
SOUTHWEST MINNESOTA

CITY           SKY/WX    TMP DP  RH WIND       PRES   REMARKS
FAIRMONT       CLOUDY    12   1  62 NW30G36   29.98S WCI  -9
JACKSON        MOCLDY    10   3  72 NW33G52   30.02R WCI -13
LUVERNE        PTCLDY    16  10  79 N20       30.10R WCI  -1
MARSHALL       LGT SNOW  10   7  85 N28G33    30.10S FOG     WCI -11
MONTEVIDEO     CLOUDY    10   5  79 N25G33    30.14R WCI -10
PIPESTONE      LGT SNOW  16   5  62 N17G25    30.08R WCI   0
REDWOOD FALLS  CLOUDY    11   2  67 NW16G30   30.08R WCI  -6
TRACY          LGT SNOW  11   6  82 N24G39    30.09R WCI  -9
WINDOM         CLEAR      9   3  78 NW28G38   30.04R HAZE    WCI -13
WORTHINGTON    CLOUDY   N/A N/A N/A N31G39    30.06R VSB 1
$$

IAZ001>003-012>014-020>022-031-032-NEZ013-014-SDZ071-090500-
NORTHWEST IOWA

CITY           SKY/WX    TMP DP  RH WIND       PRES   REMARKS
CHEROKEE       FLURRIES  16  13  87 N14       30.07R WCI   1
DENISON        PTCLDY    19  14  79 N16G24    30.04R WCI   5
ESTHERVILLE    MIX PCPN   9   4  80 N35G46    30.03R VSB 1   WCI -15
LE MARS        CLEAR     21  16  79 N14G20    30.12R WCI   8
ORANGE CITY    CLEAR     18  12  79 N13       30.08R WCI   4
SHELDON        FLURRIES  14  10  85 N24       30.07R WCI  -5
SIOUX CITY     PTCLDY    25  13  60 N22       30.09S WCI  10
SPENCER        LGT SNOW  13   7  77 NW29G40   30.04R VSB 3/4 WCI  -8
STORM LAKE     FLURRIES  14  10  85 N20G26    30.03S WCI  -3
$$

ABBREVIATIONS USED IN REMARKS
   TC - TEMPERATURE IN CELSIUS
  WCI - WIND CHILL INDEX
   HX - HEAT INDEX
  VSB - VISIBILITY




USA.gov is the U.S. government's official web portal to all federal, state and local government web resources and services.